Location: Casteau
(50.5142°N, 4.0161°E)
Time: 03:13:52
(UTC+00:00)

ARIANE 5 R/B - Pass Details

Date: 18 September 2020
Orbit: 620 x 657 km, 98.2° (Epoch: 09 October)

Event Time Altitude Azimuth Distance (km) Brightness Sun altitude
Exits shadow 21:15:16 35° 283° (WNW) 1,014 4.0 -29.8°
Drops below altitude 10° 21:18:41 10° 331° (NNW) 2,003 6.0 -30.2°
Sets 21:21:01 0° 340° (NNW) 2,912 7.0 -30.4°
